Year,Month,Day,Hour,Minute,Value (Times are PST for windgust in km/hr)
2020,01,31,04,25,4.80
2020,01,31,04,26,4.80
2020,01,31,04,27,3.20
2020,01,31,04,28,3.20
2020,01,31,04,29,3.20
2020,01,31,04,30,1.60
2020,01,31,04,31,3.20
2020,01,31,04,32,1.60
2020,01,31,04,33,1.60
2020,01,31,04,34,4.80
2020,01,31,04,35,3.20
2020,01,31,04,36,3.20
2020,01,31,04,37,4.80
2020,01,31,04,38,4.80
2020,01,31,04,39,3.20
2020,01,31,04,40,3.20
2020,01,31,04,41,4.80
2020,01,31,04,42,3.20
2020,01,31,04,43,1.60
2020,01,31,04,44,1.60
2020,01,31,04,47,1.60
2020,01,31,08,40,4.80
2020,01,31,08,41,4.80
2020,01,31,08,42,6.40
2020,01,31,08,43,4.80
2020,01,31,08,44,3.20
2020,01,31,08,45,1.60
2020,01,31,08,56,1.60
2020,01,31,08,57,3.20
2020,01,31,08,58,1.60
2020,01,31,08,59,1.60
2020,01,31,09,09,1.60
2020,01,31,09,10,4.80
2020,01,31,09,11,3.20
2020,01,31,09,12,3.20
2020,01,31,09,13,3.20
2020,01,31,09,14,1.60
2020,01,31,09,18,1.60
2020,01,31,09,19,1.60
2020,01,31,09,20,1.60
2020,01,31,09,21,1.60
2020,01,31,09,22,3.20
2020,01,31,09,23,1.60
2020,01,31,09,26,3.20
2020,01,31,09,27,3.20
2020,01,31,09,28,1.60
2020,01,31,09,29,4.80
2020,01,31,09,30,4.80
2020,01,31,09,31,4.80
2020,01,31,09,32,4.80
2020,01,31,09,33,1.60
2020,01,31,09,53,4.80
2020,01,31,09,54,4.80
2020,01,31,09,55,6.40
2020,01,31,09,56,6.40
2020,01,31,09,57,4.80
2020,01,31,09,58,3.20
2020,01,31,09,59,3.20
2020,01,31,10,00,3.20
2020,01,31,10,01,4.80
2020,01,31,10,02,6.40
2020,01,31,10,03,3.20
2020,01,31,10,04,4.80
2020,01,31,10,05,6.40
2020,01,31,10,06,6.40
2020,01,31,10,07,6.40
2020,01,31,10,08,4.80
2020,01,31,10,09,3.20
2020,01,31,10,10,4.80
2020,01,31,10,11,3.20
2020,01,31,10,12,3.20
2020,01,31,10,13,3.20
2020,01,31,10,14,3.20
2020,01,31,10,15,4.80
2020,01,31,10,16,3.20
2020,01,31,10,17,3.20
2020,01,31,10,18,3.20
2020,01,31,10,19,3.20
2020,01,31,10,20,3.20
2020,01,31,10,21,3.20
2020,01,31,10,22,3.20
2020,01,31,10,23,1.60
2020,01,31,10,24,1.60
2020,01,31,10,25,1.60
2020,01,31,10,26,1.60
2020,01,31,10,39,1.60
2020,01,31,10,40,1.60
2020,01,31,10,42,1.60
2020,01,31,10,43,1.60
2020,01,31,10,44,1.60
2020,01,31,10,49,3.20
2020,01,31,10,50,4.80
2020,01,31,10,51,3.20
2020,01,31,10,52,1.60
2020,01,31,10,53,1.60
2020,01,31,10,54,3.20
2020,01,31,10,55,3.20
2020,01,31,10,56,3.20
2020,01,31,10,57,1.60
2020,01,31,10,58,1.60
2020,01,31,10,59,3.20
2020,01,31,11,00,6.40
2020,01,31,11,01,4.80
2020,01,31,11,02,4.80
2020,01,31,11,03,4.80
2020,01,31,11,04,4.80
2020,01,31,11,05,4.80
2020,01,31,11,06,3.20
2020,01,31,11,07,3.20
2020,01,31,11,13,3.20
2020,01,31,11,14,1.60
2020,01,31,11,16,1.60
2020,01,31,11,17,3.20
2020,01,31,11,18,1.60
2020,01,31,11,19,1.60
2020,01,31,11,20,1.60
2020,01,31,11,24,1.60
2020,01,31,11,25,3.20
2020,01,31,11,26,4.80
2020,01,31,11,27,4.80
2020,01,31,11,28,3.20
2020,01,31,11,29,1.60
2020,01,31,11,30,1.60
2020,01,31,11,31,3.20
2020,01,31,11,32,1.60
2020,01,31,11,33,1.60
2020,01,31,11,34,3.20
2020,01,31,11,35,4.80
2020,01,31,11,36,3.20
2020,01,31,11,37,3.20
2020,01,31,11,38,3.20
2020,01,31,11,39,3.20
2020,01,31,11,40,4.80
2020,01,31,11,41,3.20
2020,01,31,11,42,4.80
2020,01,31,11,43,3.20
2020,01,31,11,44,3.20
2020,01,31,11,45,3.20
2020,01,31,11,46,1.60
2020,01,31,11,47,4.80
2020,01,31,11,48,4.80
2020,01,31,11,49,3.20
2020,01,31,11,50,3.20
2020,01,31,11,51,4.80
2020,01,31,11,52,3.20
2020,01,31,11,53,3.20
2020,01,31,12,00,4.80
2020,01,31,12,01,4.80
2020,01,31,12,02,3.20
2020,01,31,12,03,4.80
2020,01,31,12,04,4.80
2020,01,31,12,05,3.20
2020,01,31,12,06,1.60
2020,01,31,12,07,6.40
2020,01,31,12,08,4.80
2020,01,31,12,09,1.60
2020,01,31,12,10,3.20
2020,01,31,12,11,4.80
2020,01,31,12,12,6.40
2020,01,31,12,13,6.40
2020,01,31,12,14,6.40
2020,01,31,12,15,3.20
2020,01,31,12,16,4.80
2020,01,31,12,17,4.80
2020,01,31,12,18,4.80
2020,01,31,12,19,4.80
2020,01,31,12,20,4.80
2020,01,31,12,21,4.80
2020,01,31,12,22,4.80
2020,01,31,12,23,3.20
2020,01,31,12,24,1.60
2020,01,31,12,25,1.60
2020,01,31,12,27,3.20
2020,01,31,12,28,1.60
2020,01,31,12,29,1.60
2020,01,31,12,30,1.60
2020,01,31,12,31,1.60
2020,01,31,12,32,1.60
2020,01,31,12,36,1.60
2020,01,31,12,44,4.80
2020,01,31,12,45,3.20
2020,01,31,12,46,4.80
2020,01,31,12,47,4.80
2020,01,31,12,48,3.20
2020,01,31,12,49,4.80
2020,01,31,12,50,4.80
2020,01,31,12,51,4.80
2020,01,31,12,52,3.20
2020,01,31,12,53,4.80
2020,01,31,12,54,4.80
2020,01,31,12,55,4.80
2020,01,31,12,56,6.40
2020,01,31,12,57,4.80
2020,01,31,12,58,1.60
2020,01,31,12,59,3.20
2020,01,31,13,00,1.60
2020,01,31,13,01,3.20
2020,01,31,13,02,3.20
2020,01,31,13,03,1.60
2020,01,31,13,04,1.60
2020,01,31,13,05,3.20
2020,01,31,13,06,3.20
2020,01,31,13,08,1.60
2020,01,31,13,09,6.40
2020,01,31,13,10,4.80
2020,01,31,13,14,1.60
2020,01,31,13,15,3.20
2020,01,31,13,16,3.20
2020,01,31,13,17,3.20
2020,01,31,13,18,3.20
2020,01,31,13,19,1.60
2020,01,31,13,20,1.60
2020,01,31,13,23,3.20
2020,01,31,13,24,6.40
2020,01,31,13,25,8.10
2020,01,31,13,26,4.80
2020,01,31,13,27,8.10
2020,01,31,13,28,6.40
2020,01,31,13,29,3.20
2020,01,31,13,30,6.40
2020,01,31,13,31,6.40
2020,01,31,13,32,1.60
2020,01,31,13,33,3.20
2020,01,31,13,34,6.40
2020,01,31,13,35,6.40
2020,01,31,13,36,4.80
2020,01,31,13,37,3.20
2020,01,31,13,38,4.80
2020,01,31,13,39,3.20
2020,01,31,13,40,3.20
2020,01,31,13,41,3.20
2020,01,31,13,42,1.60
2020,01,31,13,43,1.60
2020,01,31,13,47,4.80
2020,01,31,13,48,4.80
2020,01,31,13,49,3.20
2020,01,31,13,50,6.40
2020,01,31,13,51,8.10
2020,01,31,13,52,4.80
2020,01,31,13,53,1.60
2020,01,31,13,55,1.60
2020,01,31,13,56,3.20
2020,01,31,13,57,3.20
2020,01,31,13,58,1.60
2020,01,31,13,59,1.60
2020,01,31,14,04,3.20
2020,01,31,14,05,4.80
2020,01,31,14,06,3.20
2020,01,31,14,07,1.60
2020,01,31,14,11,3.20
2020,01,31,14,12,4.80
2020,01,31,14,13,6.40
2020,01,31,14,14,3.20
2020,01,31,14,15,3.20
2020,01,31,14,16,3.20
2020,01,31,14,18,1.60
2020,01,31,14,19,1.60
2020,01,31,14,20,3.20
2020,01,31,14,21,1.60
2020,01,31,14,22,4.80
2020,01,31,14,23,4.80
2020,01,31,14,24,1.60
2020,01,31,14,25,4.80
2020,01,31,14,26,6.40
2020,01,31,14,27,8.10
2020,01,31,14,28,4.80
2020,01,31,14,29,1.60
2020,01,31,14,31,3.20
2020,01,31,14,32,4.80
2020,01,31,14,33,6.40
2020,01,31,14,34,6.40
2020,01,31,14,35,3.20
2020,01,31,14,36,6.40
2020,01,31,14,37,8.10
2020,01,31,14,38,6.40
2020,01,31,14,39,4.80
2020,01,31,14,40,8.10
2020,01,31,14,41,8.10
2020,01,31,14,42,3.20
2020,01,31,14,43,4.80
2020,01,31,14,44,6.40
2020,01,31,14,45,6.40
2020,01,31,14,46,9.60
2020,01,31,14,47,6.40
2020,01,31,14,48,8.10
2020,01,31,14,49,9.60
2020,01,31,14,50,6.40
2020,01,31,14,51,1.60
2020,01,31,14,52,1.60
2020,01,31,14,53,3.20
2020,01,31,14,54,1.60
2020,01,31,14,56,8.10
2020,01,31,14,57,6.40
2020,01,31,14,58,6.40
2020,01,31,14,59,8.10
2020,01,31,15,00,6.40
2020,01,31,15,01,8.10
2020,01,31,15,02,8.10
2020,01,31,15,03,6.40
2020,01,31,15,04,3.20
2020,01,31,15,05,6.40
2020,01,31,15,06,3.20
2020,01,31,15,07,3.20
2020,01,31,15,08,3.20
2020,01,31,15,09,8.10
2020,01,31,15,10,11.30
2020,01,31,15,11,11.30
2020,01,31,15,12,17.70
2020,01,31,15,13,19.30
2020,01,31,15,14,24.20
2020,01,31,15,15,19.30
2020,01,31,15,16,20.90
2020,01,31,15,17,20.90
2020,01,31,15,18,16.10
2020,01,31,15,19,9.60
2020,01,31,15,20,9.60
2020,01,31,15,21,9.60
2020,01,31,15,22,9.60
2020,01,31,15,23,9.60
2020,01,31,15,24,9.60
2020,01,31,15,25,22.50
2020,01,31,15,26,19.30
2020,01,31,15,27,16.10
2020,01,31,15,28,17.70
2020,01,31,15,29,11.30
2020,01,31,15,30,25.70
2020,01,31,15,31,12.90
2020,01,31,15,32,22.50
2020,01,31,15,33,24.20
2020,01,31,15,34,14.50
2020,01,31,15,35,19.30
2020,01,31,15,36,22.50
2020,01,31,15,37,19.30
2020,01,31,15,38,19.30
2020,01,31,15,39,24.20
2020,01,31,15,40,20.90
2020,01,31,15,41,32.20
2020,01,31,15,42,24.20
2020,01,31,15,43,19.30
2020,01,31,15,44,12.90
2020,01,31,15,45,20.90
2020,01,31,15,46,19.30
2020,01,31,15,47,19.30
2020,01,31,15,48,12.90
2020,01,31,15,49,11.30
2020,01,31,15,50,16.10
2020,01,31,15,51,14.50
2020,01,31,15,52,14.50
2020,01,31,15,53,22.50
2020,01,31,15,54,16.10
2020,01,31,15,55,16.10
2020,01,31,15,56,19.30
2020,01,31,15,57,20.90
2020,01,31,15,58,17.70
2020,01,31,15,59,16.10
2020,01,31,16,00,16.10
2020,01,31,16,01,12.90
2020,01,31,16,02,11.30
2020,01,31,16,03,11.30
2020,01,31,16,04,22.50
2020,01,31,16,05,22.50
2020,01,31,16,06,6.40
2020,01,31,16,07,22.50
2020,01,31,16,08,24.20
2020,01,31,16,09,17.70
2020,01,31,16,10,11.30
2020,01,31,16,11,27.40
2020,01,31,16,12,24.20
2020,01,31,16,13,19.30
2020,01,31,16,14,20.90
2020,01,31,16,15,12.90
2020,01,31,16,16,16.10
2020,01,31,16,17,11.30
2020,01,31,16,18,11.30
2020,01,31,16,19,12.90
2020,01,31,16,20,17.70
2020,01,31,16,21,16.10
2020,01,31,16,22,24.20
2020,01,31,16,23,12.90
2020,01,31,16,24,16.10
2020,01,31,16,25,16.10
2020,01,31,16,26,11.30
2020,01,31,16,27,17.70
2020,01,31,16,28,20.90
2020,01,31,16,29,24.20
2020,01,31,16,30,19.30
2020,01,31,16,31,17.70
2020,01,31,16,32,12.90
2020,01,31,16,33,20.90
2020,01,31,16,34,22.50
2020,01,31,16,35,14.50
2020,01,31,16,36,22.50
2020,01,31,16,37,27.40
2020,01,31,16,38,14.50
2020,01,31,16,39,9.60
2020,01,31,16,40,8.10
2020,01,31,16,41,9.60
2020,01,31,16,42,8.10
2020,01,31,16,43,17.70
2020,01,31,16,44,37.00
2020,01,31,16,45,30.60
2020,01,31,16,46,14.50
2020,01,31,16,47,20.90
2020,01,31,16,48,24.20
2020,01,31,16,49,16.10
2020,01,31,16,50,20.90
2020,01,31,16,51,22.50
2020,01,31,16,52,20.90
2020,01,31,16,53,38.60
2020,01,31,16,54,30.60
2020,01,31,16,55,22.50
2020,01,31,16,56,25.70
2020,01,31,16,57,24.20
2020,01,31,16,58,20.90
2020,01,31,16,59,12.90
2020,01,31,17,00,14.50
2020,01,31,17,01,17.70
2020,01,31,17,02,14.50
2020,01,31,17,03,12.90
2020,01,31,17,04,24.20
2020,01,31,17,05,22.50
2020,01,31,17,06,24.20
2020,01,31,17,07,19.30
2020,01,31,17,08,19.30
2020,01,31,17,09,19.30
2020,01,31,17,10,19.30
2020,01,31,17,11,27.40
2020,01,31,17,12,22.50
2020,01,31,17,13,24.20
2020,01,31,17,14,14.50
2020,01,31,17,15,17.70
2020,01,31,17,16,17.70
2020,01,31,17,17,14.50
2020,01,31,17,18,19.30
2020,01,31,17,19,14.50
2020,01,31,17,20,12.90
2020,01,31,17,21,14.50
2020,01,31,17,22,14.50
2020,01,31,17,23,11.30
2020,01,31,17,24,4.80
2020,01,31,17,25,8.10
2020,01,31,17,26,11.30
2020,01,31,17,27,16.10
2020,01,31,17,28,9.60
2020,01,31,17,29,11.30
2020,01,31,17,30,6.40
2020,01,31,17,31,16.10
2020,01,31,17,32,19.30
2020,01,31,17,33,19.30
2020,01,31,17,34,14.50
2020,01,31,17,35,9.60
2020,01,31,17,36,19.30
2020,01,31,17,37,19.30
2020,01,31,17,38,12.90
2020,01,31,17,39,12.90
2020,01,31,17,40,14.50
2020,01,31,17,41,11.30
2020,01,31,17,42,14.50
2020,01,31,17,43,12.90
2020,01,31,17,44,14.50
2020,01,31,17,45,17.70
2020,01,31,17,46,17.70
2020,01,31,17,47,12.90
2020,01,31,17,48,16.10
2020,01,31,17,49,17.70
2020,01,31,17,50,14.50
2020,01,31,17,51,20.90
2020,01,31,17,52,24.20
2020,01,31,17,53,16.10
2020,01,31,17,54,12.90
2020,01,31,17,55,12.90
2020,01,31,17,56,9.60
2020,01,31,17,57,14.50
2020,01,31,17,58,11.30
2020,01,31,17,59,20.90
2020,01,31,18,00,22.50
2020,01,31,18,01,22.50
2020,01,31,18,02,17.70
2020,01,31,18,03,14.50
2020,01,31,18,04,20.90
2020,01,31,18,05,17.70
2020,01,31,18,06,20.90
2020,01,31,18,07,27.40
2020,01,31,18,08,29.00
2020,01,31,18,09,27.40
2020,01,31,18,10,12.90
2020,01,31,18,11,30.60
2020,01,31,18,12,29.00
2020,01,31,18,13,32.20
2020,01,31,18,14,27.40
2020,01,31,18,15,24.20
2020,01,31,18,16,25.70
2020,01,31,18,17,22.50
2020,01,31,18,18,25.70
2020,01,31,18,19,16.10
2020,01,31,18,20,27.40
2020,01,31,18,21,33.80
2020,01,31,18,22,20.90
2020,01,31,18,23,20.90
2020,01,31,18,24,25.70
2020,01,31,18,25,27.40
2020,01,31,18,26,16.10
2020,01,31,18,27,29.00
2020,01,31,18,28,17.70
2020,01,31,18,29,24.20
2020,01,31,18,30,35.40
2020,01,31,18,31,33.80
2020,01,31,18,32,25.70
2020,01,31,18,33,30.60
2020,01,31,18,34,30.60
2020,01,31,18,35,24.20
2020,01,31,18,36,25.70
2020,01,31,18,37,35.40
2020,01,31,18,38,30.60
2020,01,31,18,39,37.00
2020,01,31,18,40,37.00
2020,01,31,18,41,19.30
2020,01,31,18,42,19.30
2020,01,31,18,43,25.70
2020,01,31,18,44,25.70
2020,01,31,18,45,16.10
2020,01,31,18,46,24.20
2020,01,31,18,47,22.50
2020,01,31,18,48,25.70
2020,01,31,18,49,27.40
2020,01,31,18,50,30.60
2020,01,31,18,51,33.80
2020,01,31,18,52,33.80
2020,01,31,18,53,30.60
2020,01,31,18,54,37.00
2020,01,31,18,55,25.70
2020,01,31,18,56,22.50
2020,01,31,18,57,16.10
2020,01,31,18,58,17.70
2020,01,31,18,59,22.50
2020,01,31,19,00,24.20
2020,01,31,19,01,20.90
2020,01,31,19,02,17.70
2020,01,31,19,03,14.50
2020,01,31,19,04,17.70
2020,01,31,19,05,24.20
2020,01,31,19,06,17.70
2020,01,31,19,07,12.90
2020,01,31,19,08,19.30
2020,01,31,19,09,29.00
2020,01,31,19,10,32.20
2020,01,31,19,11,27.40
2020,01,31,19,12,32.20
2020,01,31,19,13,25.70
2020,01,31,19,14,20.90
2020,01,31,19,15,12.90
2020,01,31,19,16,37.00
2020,01,31,19,17,38.60
2020,01,31,19,18,27.40
2020,01,31,19,19,27.40
2020,01,31,19,20,29.00
2020,01,31,19,21,24.20
2020,01,31,19,22,20.90
2020,01,31,19,23,32.20
2020,01,31,19,24,16.10
2020,01,31,19,25,29.00
2020,01,31,19,26,27.40
2020,01,31,19,27,14.50
2020,01,31,19,28,32.20
2020,01,31,19,29,29.00
2020,01,31,19,30,33.80
2020,01,31,19,31,29.00
2020,01,31,19,32,25.70
2020,01,31,19,33,25.70
2020,01,31,19,34,20.90
2020,01,31,19,35,33.80
2020,01,31,19,36,24.20
2020,01,31,19,37,27.40
2020,01,31,19,38,17.70
2020,01,31,19,39,19.30
2020,01,31,19,40,16.10
2020,01,31,19,41,17.70
2020,01,31,19,42,20.90
2020,01,31,19,43,27.40
2020,01,31,19,44,25.70
2020,01,31,19,45,24.20
2020,01,31,19,46,20.90
2020,01,31,19,47,33.80
2020,01,31,19,48,33.80
2020,01,31,19,49,30.60
2020,01,31,19,50,24.20
2020,01,31,19,51,33.80
2020,01,31,19,52,22.50
2020,01,31,19,53,20.90
2020,01,31,19,54,32.20
2020,01,31,19,55,29.00
2020,01,31,19,56,24.20
2020,01,31,19,57,30.60
2020,01,31,19,58,27.40
2020,01,31,19,59,20.90
2020,01,31,20,00,20.90
2020,01,31,20,01,19.30
2020,01,31,20,02,25.70
2020,01,31,20,03,19.30
2020,01,31,20,04,24.20
2020,01,31,20,05,29.00
2020,01,31,20,06,27.40
2020,01,31,20,07,17.70
2020,01,31,20,08,25.70
2020,01,31,20,09,32.20
2020,01,31,20,10,29.00
2020,01,31,20,11,33.80
2020,01,31,20,12,37.00
2020,01,31,20,13,20.90
2020,01,31,20,14,17.70
2020,01,31,20,15,19.30
2020,01,31,20,16,14.50
2020,01,31,20,17,25.70
2020,01,31,20,18,25.70
2020,01,31,20,19,17.70
2020,01,31,20,20,14.50
2020,01,31,20,21,14.50
2020,01,31,20,22,14.50
2020,01,31,20,23,14.50
2020,01,31,20,24,14.50
2020,01,31,20,25,30.60
2020,01,31,20,26,33.80
2020,01,31,20,27,19.30
2020,01,31,20,28,33.80
2020,01,31,20,29,27.40
2020,01,31,20,30,38.60
2020,01,31,20,31,25.70
2020,01,31,20,32,19.30
2020,01,31,20,33,19.30
2020,01,31,20,34,27.40
2020,01,31,20,35,25.70
2020,01,31,20,36,27.40
2020,01,31,20,37,25.70
2020,01,31,20,38,20.90
2020,01,31,20,39,27.40
2020,01,31,20,40,30.60
2020,01,31,20,41,27.40
2020,01,31,20,42,22.50
2020,01,31,20,43,22.50
2020,01,31,20,44,25.70
2020,01,31,20,45,19.30
2020,01,31,20,46,22.50
2020,01,31,20,47,25.70
2020,01,31,20,48,22.50
2020,01,31,20,49,24.20
2020,01,31,20,50,16.10
2020,01,31,20,51,16.10
2020,01,31,20,52,19.30
2020,01,31,20,53,19.30
2020,01,31,20,54,20.90
2020,01,31,20,55,16.10
2020,01,31,20,56,22.50
2020,01,31,20,57,24.20
2020,01,31,20,58,22.50
2020,01,31,20,59,19.30
2020,01,31,21,00,17.70
2020,01,31,21,01,17.70
2020,01,31,21,02,12.90
2020,01,31,21,03,17.70
2020,01,31,21,04,19.30
2020,01,31,21,05,16.10
2020,01,31,21,06,16.10
2020,01,31,21,07,16.10
2020,01,31,21,08,25.70
2020,01,31,21,09,14.50
2020,01,31,21,10,14.50
2020,01,31,21,11,19.30
2020,01,31,21,12,32.20
2020,01,31,21,13,16.10
2020,01,31,21,14,11.30
2020,01,31,21,15,22.50
2020,01,31,21,16,17.70
2020,01,31,21,17,12.90
2020,01,31,21,18,9.60
2020,01,31,21,19,22.50
2020,01,31,21,20,19.30
2020,01,31,21,21,16.10
2020,01,31,21,22,14.50
2020,01,31,21,23,29.00
2020,01,31,21,24,27.40
2020,01,31,21,25,22.50
2020,01,31,21,26,19.30
2020,01,31,21,27,25.70
2020,01,31,21,28,25.70
2020,01,31,21,29,19.30
2020,01,31,21,30,16.10
2020,01,31,21,31,17.70
2020,01,31,21,32,14.50
2020,01,31,21,33,9.60
2020,01,31,21,34,12.90
2020,01,31,21,35,12.90
2020,01,31,21,36,16.10
2020,01,31,21,37,25.70
2020,01,31,21,38,30.60
2020,01,31,21,39,17.70
2020,01,31,21,40,20.90
2020,01,31,21,41,17.70
2020,01,31,21,42,16.10
2020,01,31,21,43,22.50
2020,01,31,21,44,27.40
2020,01,31,21,45,19.30
2020,01,31,21,46,9.60
2020,01,31,21,47,14.50
2020,01,31,21,48,16.10
2020,01,31,21,49,11.30
2020,01,31,21,50,17.70
2020,01,31,21,51,22.50
2020,01,31,21,52,20.90
2020,01,31,21,53,25.70
2020,01,31,21,54,25.70
2020,01,31,21,55,32.20
2020,01,31,21,56,30.60
2020,01,31,21,57,29.00
2020,01,31,21,58,22.50
2020,01,31,21,59,27.40
2020,01,31,22,00,16.10
2020,01,31,22,01,25.70
2020,01,31,22,02,14.50
2020,01,31,22,03,14.50
2020,01,31,22,04,17.70
2020,01,31,22,05,22.50
2020,01,31,22,06,20.90
2020,01,31,22,07,17.70
2020,01,31,22,08,24.20
2020,01,31,22,09,27.40
2020,01,31,22,10,27.40
2020,01,31,22,11,22.50
2020,01,31,22,12,19.30
2020,01,31,22,13,24.20
2020,01,31,22,14,25.70
2020,01,31,22,15,27.40
2020,01,31,22,16,33.80
2020,01,31,22,17,30.60
2020,01,31,22,18,32.20
2020,01,31,22,19,33.80
2020,01,31,22,20,27.40
2020,01,31,22,21,25.70
2020,01,31,22,22,24.20
2020,01,31,22,23,24.20
2020,01,31,22,24,24.20
2020,01,31,22,25,27.40
2020,01,31,22,26,25.70
2020,01,31,22,27,29.00
2020,01,31,22,28,27.40
2020,01,31,22,29,32.20
2020,01,31,22,30,38.60
2020,01,31,22,31,29.00
2020,01,31,22,32,27.40
2020,01,31,22,33,19.30
2020,01,31,22,34,38.60
2020,01,31,22,35,32.20
2020,01,31,22,36,22.50
2020,01,31,22,37,22.50
2020,01,31,22,38,14.50
2020,01,31,22,39,8.10
2020,01,31,22,40,9.60
2020,01,31,22,41,20.90
2020,01,31,22,42,17.70
2020,01,31,22,43,20.90
2020,01,31,22,44,20.90
2020,01,31,22,45,11.30
2020,01,31,22,46,11.30
2020,01,31,22,47,22.50
2020,01,31,22,48,17.70
2020,01,31,22,49,20.90
2020,01,31,22,50,20.90
2020,01,31,22,51,19.30
2020,01,31,22,52,20.90
2020,01,31,22,53,25.70
2020,01,31,22,54,12.90
2020,01,31,22,55,14.50
2020,01,31,22,56,12.90
2020,01,31,22,57,6.40
2020,01,31,22,58,8.10
2020,01,31,22,59,8.10
2020,01,31,23,00,6.40
2020,01,31,23,01,8.10
2020,01,31,23,02,6.40
2020,01,31,23,03,8.10
2020,01,31,23,04,6.40
2020,01,31,23,05,8.10
2020,01,31,23,06,6.40
2020,01,31,23,07,4.80
2020,01,31,23,08,8.10
2020,01,31,23,09,6.40
2020,01,31,23,10,8.10
2020,01,31,23,11,8.10
2020,01,31,23,12,8.10
2020,01,31,23,13,8.10
2020,01,31,23,14,9.60
2020,01,31,23,15,12.90
2020,01,31,23,16,9.60
2020,01,31,23,17,6.40
2020,01,31,23,18,8.10
2020,01,31,23,19,6.40
2020,01,31,23,20,6.40
2020,01,31,23,21,9.60
2020,01,31,23,22,4.80
2020,01,31,23,23,6.40
2020,01,31,23,24,8.10
2020,01,31,23,25,6.40
2020,01,31,23,26,3.20
2020,01,31,23,27,4.80
2020,01,31,23,28,3.20
2020,01,31,23,29,8.10
2020,01,31,23,30,6.40
2020,01,31,23,31,4.80
2020,01,31,23,32,8.10
2020,01,31,23,33,4.80
2020,01,31,23,34,8.10
2020,01,31,23,35,4.80
2020,01,31,23,36,8.10
2020,01,31,23,37,6.40
2020,01,31,23,38,8.10
2020,01,31,23,39,6.40
2020,01,31,23,40,8.10
2020,01,31,23,41,11.30
2020,01,31,23,42,9.60
2020,01,31,23,43,17.70
2020,01,31,23,44,11.30
2020,01,31,23,45,11.30
2020,01,31,23,46,16.10
2020,01,31,23,47,20.90
2020,01,31,23,48,16.10
2020,01,31,23,49,22.50
2020,01,31,23,50,22.50
2020,01,31,23,51,24.20
2020,01,31,23,52,19.30
2020,01,31,23,53,19.30
2020,01,31,23,54,24.20
2020,01,31,23,55,25.70
2020,01,31,23,56,24.20
2020,01,31,23,57,29.00
2020,01,31,23,58,35.40
2020,01,31,23,59,25.70
